W3EJE-13 Weather Reports


Display with metric or nautical units.
time (UTC)temp
F
wind
direction
speed
MPH
gust
MPH
rain 1hr
in
rain 24hr
in
rain mn
in
humidity
%
barometer
mb
20260902103952 65 245 0.0 0.0 0.00 0.00 0.00 99 1021.9
20260902103448 65 245 0.0 0.0 0.00 0.00 0.00 99 1021.9
20260902102943 65 245 0.0 0.0 0.00 0.00 0.00 99 1022.0
20260902102439 65 245 0.0 0.0 0.00 0.00 0.00 99 1022.2
20260902101936 66 245 0.0 0.0 0.00 0.00 0.00 99 1022.2
20260902101430 66 245 0.0 0.0 0.00 0.00 0.00 99 1022.1
20260902100930 65 245 0.0 0.0 0.00 0.00 0.00 99 1022.2
20260902100430 65 245 0.0 0.0 0.00 0.00 0.00 99 1022.0
20260902095924 66 246 0.0 0.0 0.00 0.00 0.00 99 1022.4
20260902095419 66 245 0.0 0.0 0.00 0.00 0.00 99 1022.2
20260902094918 66 246 0.0 0.0 0.00 0.00 0.00 99 1022.3
20260902094414 66 246 0.0 0.0 0.00 0.00 0.00 99 1022.3
20260902093909 66 246 0.0 0.0 0.00 0.00 0.00 99 1022.3
20260902093404 66 246 0.0 0.0 0.00 0.00 0.00 99 1022.2
20260902092902 66 246 0.0 0.0 0.00 0.00 0.00 99 1022.1
20260902092358 66 247 0.0 0.0 0.00 0.00 0.00 99 1022.1
20260902091853 66 246 0.0 0.0 0.00 0.00 0.00 99 1022.3
20260902091348 66 246 0.0 0.0 0.00 0.00 0.00 99 1022.2
20260902090845 66 246 0.0 0.0 0.00 0.00 0.00 99 1022.3
20260902090344 66 246 0.0 0.0 0.00 0.00 0.00 99 1022.2
20260902085843 67 246 0.0 0.0 0.00 0.00 0.00 99 1022.3
20260902085339 67 246 0.0 0.0 0.00 0.00 0.00 99 1022.1
20260902084834 67 246 0.0 0.0 0.00 0.00 0.00 99 1022.3
20260902084331 67 246 0.0 0.0 0.00 0.00 0.00 99 1022.1
20260902083826 67 247 0.0 0.0 0.00 0.00 0.00 99 1022.3
20260902083325 67 247 0.0 0.0 0.00 0.00 0.00 99 1022.0
20260902082821 67 247 0.0 0.0 0.00 0.00 0.00 99 1022.2
20260902082317 67 247 0.0 0.0 0.00 0.00 0.00 99 1022.0
20260902081813 67 247 0.0 0.0 0.00 0.00 0.00 99 1022.1
20260902081309 67 247 0.0 0.0 0.00 0.00 0.00 99 1022.0
20260902080803 67 247 0.0 0.0 0.00 0.00 0.00 99 1022.3
20260902080301 67 245 0.0 0.0 0.00 0.00 0.00 99 1022.1
20260902075759 67 246 0.0 0.0 0.00 0.00 0.00 99 1022.0
20260902075256 67 246 0.0 0.0 0.00 0.00 0.00 99 1022.1
20260902074756 67 246 0.0 0.0 0.00 0.00 0.00 99 1022.3
20260902074251 67 246 0.0 0.0 0.00 0.00 0.00 99 1022.0
20260902073746 68 245 0.0 0.0 0.00 0.00 0.00 99 1021.8
20260902073242 68 245 0.0 0.0 0.00 0.00 0.00 99 1021.9
20260902072738 68 245 0.0 0.0 0.00 0.00 0.00 99 1021.9
20260902072234 68 245 0.0 0.0 0.00 0.00 0.00 99 1022.0
20260902071730 68 245 0.0 0.0 0.00 0.00 0.00 99 1022.1
20260902071225 68 245 0.0 0.0 0.00 0.00 0.00 99 1021.9
20260902070722 68 245 0.0 0.0 0.00 0.00 0.00 99 1022.1
20260902070220 68 245 0.0 0.0 0.00 0.00 0.00 99 1021.9
20260902065720 68 245 0.0 0.0 0.00 0.00 0.00 99 1021.9
20260902065215 68 245 0.0 0.0 0.00 0.00 0.00 99 1022.0
20260902064711 68 246 0.0 0.0 0.00 0.00 0.00 99 1021.9
20260902064206 67 246 0.0 0.0 0.00 0.00 0.00 99 1022.0
20260902063702 67 246 0.0 0.0 0.00 0.00 0.00 99 1022.1
20260902063156 67 246 0.0 0.0 0.00 0.00 0.00 99 1022.4
20260902062655 67 246 0.0 0.0 0.00 0.00 0.00 99 1022.2
20260902062151 67 246 0.0 0.0 0.00 0.00 0.00 99 1022.3
20260902061649 67 246 0.0 0.0 0.00 0.00 0.00 99 1022.0
20260902061145 68 246 0.0 0.0 0.00 0.00 0.00 99 1022.3
20260902060642 68 245 0.0 0.0 0.00 0.00 0.00 99 1022.4
20260902060138 68 246 0.0 0.0 0.00 0.00 0.00 99 1022.2
20260902055633 68 249 0.0 0.0 0.00 0.00 0.00 99 1022.1
20260902055129 68 249 0.0 0.0 0.00 0.00 0.00 99 1021.9
20260902054624 68 248 0.0 0.0 0.00 0.00 0.00 99 1022.0
20260902054120 68 248 0.0 0.0 0.00 0.00 0.00 99 1022.0
20260902053615 68 249 0.0 0.0 0.00 0.00 0.00 99 1022.1
20260902053109 68 249 0.0 0.0 0.00 0.00 0.00 99 1022.0
20260902052603 68 249 0.0 0.0 0.00 0.00 0.00 99 1021.8
20260902052059 68 246 0.0 0.0 0.00 0.00 0.00 99 1022.2
20260902051558 68 246 0.0 0.0 0.00 0.00 0.00 99 1021.9
20260902051058 69 246 0.0 0.0 0.00 0.00 0.00 99 1021.7
20260902050557 69 246 0.0 0.0 0.00 0.00 0.00 99 1022.0
20260902050053 69 246 0.0 0.0 0.00 0.00 0.00 99 1021.6
20260902045548 69 246 0.0 0.0 0.00 0.00 0.00 99 1021.7
20260902045044 69 246 0.0 0.0 0.00 0.00 0.00 99 1021.6
20260902044539 69 246 0.0 0.0 0.00 0.00 0.00 99 1021.8
20260902044034 69 249 0.0 0.0 0.00 0.00 0.00 99 1021.9
20260902043530 69 248 0.0 0.0 0.00 0.00 0.00 99 1021.7
20260902043025 69 249 0.0 0.0 0.00 0.00 0.00 99 1021.8
20260902042524 69 246 0.0 0.0 0.00 0.00 0.00 99 1021.9
20260902042020 69 246 0.0 0.0 0.00 0.00 0.00 99 1021.6
20260902041514 69 246 0.0 0.0 0.00 0.00 0.00 99 1021.6
20260902041008 69 246 0.0 0.0 0.00 0.00 0.00 99 1021.6
20260902040503 69 246 0.0 0.0 0.00 0.00 0.00 99 1021.7
20260902040002 69 246 0.0 0.0 0.00 0.01 0.01 99 1021.6
20260902035456 69 246 0.0 0.0 0.00 0.01 0.01 99 1021.6
20260902034950 69 246 0.0 0.0 0.00 0.01 0.01 99 1021.5
20260902034445 69 244 0.0 0.0 0.00 0.01 0.01 99 1021.6
20260902033944 69 246 0.0 0.0 0.00 0.01 0.01 99 1021.2
20260902033438 69 249 0.0 0.0 0.00 0.01 0.01 99 1021.3
20260902032937 69 246 0.0 0.0 0.00 0.01 0.01 99 1021.3
20260902032432 69 247 0.0 0.0 0.00 0.01 0.01 99 1021.0
20260902031927 69 247 0.0 0.0 0.00 0.01 0.01 99 1020.9
20260902031422 69 252 0.0 0.0 0.00 0.01 0.01 99 1021.2
20260902030918 69 252 0.0 0.0 0.00 0.01 0.01 99 1021.2
20260902030413 69 252 0.0 0.0 0.00 0.01 0.01 99 1021.2
20260902025911 69 253 0.0 0.0 0.00 0.01 0.01 99 1020.9
20260902025407 69 253 0.0 0.0 0.00 0.01 0.01 99 1021.2
20260902024902 69 253 0.0 0.0 0.00 0.01 0.01 99 1021.2
20260902024358 70 254 0.0 0.0 0.00 0.01 0.01 98 1021.3
20260902023853 71 251 0.0 0.0 0.00 0.01 0.01 97 1021.3
20260902023348 71 251 0.0 0.0 0.00 0.01 0.01 97 1021.5
20260902022847 71 251 0.0 0.0 0.00 0.01 0.01 96 1021.5
20260902022342 72 250 0.0 0.0 0.00 0.01 0.01 94 1021.5
20260902021838 72 244 0.0 0.0 0.00 0.01 0.01 94 1021.6
20260902021333 72 245 0.0 0.0 0.00 0.01 0.01 95 1021.7
20260902020828 72 248 0.0 0.0 0.00 0.01 0.01 95 1021.7
20260902020325 72 248 0.0 0.0 0.00 0.01 0.01 95 1021.7
20260902015820 72 251 0.0 0.0 0.00 0.01 0.01 95 1021.5
20260902015316 73 249 0.0 0.0 0.00 0.01 0.01 94 1021.6
20260902014811 73 252 0.0 0.0 0.00 0.01 0.01 92 1021.5
20260902014308 73 246 0.0 0.0 0.00 0.01 0.01 91 1021.6
20260902013806 74 249 0.0 0.0 0.00 0.01 0.01 91 1021.3
20260902013302 74 247 0.0 0.0 0.00 0.01 0.01 90 1021.5
20260902012757 74 247 0.0 0.0 0.00 0.01 0.01 91 1021.5
20260902012253 74 246 0.0 0.0 0.00 0.01 0.01 91 1021.5
20260902011749 74 253 0.0 0.0 0.00 0.01 0.01 91 1021.4
20260902011249 73 251 0.0 0.0 0.00 0.01 0.01 93 1021.2
20260902010747 73 253 0.0 0.0 0.00 0.01 0.01 93 1020.9
20260902010243 74 257 0.0 0.0 0.00 0.01 0.01 92 1020.9
20260902005742 74 248 0.0 0.0 0.00 0.01 0.01 92 1020.8
20260902005237 74 246 0.0 0.0 0.00 0.01 0.01 92 1020.9
20260902004737 74 245 0.0 0.0 0.00 0.01 0.01 91 1020.9
20260902004232 74 252 0.0 0.0 0.00 0.01 0.01 92 1021.0
20260902003727 74 253 0.0 0.0 0.00 0.01 0.01 91 1020.8
20260902003223 75 256 0.0 0.0 0.00 0.01 0.01 90 1020.7
20260902002719 75 251 0.0 1.0 0.00 0.01 0.01 89 1020.5
20260902002218 75 254 0.0 1.0 0.00 0.01 0.01 89 1020.6
20260902001714 75 249 0.0 1.0 0.00 0.01 0.01 89 1020.7
20260902001213 75 253 0.0 0.0 0.00 0.01 0.01 89 1020.7
20260902000709 75 255 0.0 0.0 0.00 0.01 0.01 88 1020.8
20260902000204 76 255 0.0 0.0 0.00 0.01 0.01 88 1020.5
20260901235703 76 255 0.0 0.0 0.00 0.01 0.01 87 1020.6
20260901235158 76 255 0.0 0.0 0.00 0.01 0.01 87 1020.7
20260901234658 76 281 0.0 1.0 0.00 0.01 0.01 86 1020.4
20260901234153 77 254 0.0 0.0 0.00 0.01 0.01 86 1020.6
20260901233647 77 257 1.0 2.0 0.00 0.01 0.01 86 1020.6
20260901233143 77 252 1.0 1.0 0.00 0.01 0.01 84 1020.6
20260901232638 78 290 3.0 3.0 0.00 0.01 0.01 84 1020.6
20260901232133 78 264 3.0 3.0 0.00 0.01 0.01 84 1020.5
20260901231630 79 4 4.0 6.0 0.00 0.01 0.01 82 1020.7
20260901231126 79 331 4.0 5.0 0.00 0.01 0.01 82 1020.7
20260901230622 80 260 2.0 2.0 0.00 0.01 0.01 80 1020.6
20260901230121 80 253 3.0 3.0 0.00 0.01 0.01 79 1020.3
20260901225616 80 329 2.0 2.0 0.00 0.01 0.01 79 1020.7
20260901225116 79 289 5.0 6.0 0.00 0.01 0.01 80 1020.4
20260901224612 80 265 7.0 8.0 0.00 0.01 0.01 80 1020.7
20260901224108 80 261 3.0 3.0 0.00 0.01 0.01 80 1020.6
20260901223603 80 14 15.0 18.0 0.00 0.01 0.01 79 1020.7
20260901223104 81 279 5.0 6.0 0.00 0.01 0.01 80 1020.6
20260901222601 80 239 5.0 6.0 0.00 0.01 0.01 81 1020.3
20260901222056 81 13 5.0 6.0 0.00 0.01 0.01 80 1020.6
20260901221552 81 267 4.0 5.0 0.00 0.01 0.01 80 1020.3
20260901221047 81 337 7.0 8.0 0.00 0.01 0.01 81 1020.2
20260901220547 81 285 4.0 5.0 0.00 0.01 0.01 81 1020.3
20260901220046 82 282 3.0 5.0 0.00 0.01 0.01 81 1020.3
20260901215543 81 328 6.0 9.0 0.00 0.01 0.01 82 1020.4
20260901215038 82 281 4.0 5.0 0.00 0.01 0.01 81 1020.6
20260901214538 81 257 3.0 5.0 0.00 0.01 0.01 82 1020.2
20260901214032 81 283 6.0 7.0 0.00 0.01 0.01 83 1020.4
20260901213531 82 306 3.0 3.0 0.00 0.01 0.01 82 1020.5
20260901213025 82 285 5.0 6.0 0.00 0.01 0.01 81 1020.5
20260901212520 81 265 5.0 7.0 0.00 0.01 0.01 83 1020.6
20260901212017 80 228 5.0 9.0 0.00 0.01 0.01 85 1020.5
20260901211512 82 2 9.0 10.0 0.00 0.01 0.01 83 1020.4
20260901211008 81 268 4.0 5.0 0.00 0.01 0.01 83 1020.3
20260901210503 82 283 4.0 6.0 0.00 0.01 0.01 82 1020.5
20260901205959 81 263 5.0 6.0 0.00 0.01 0.01 84 1020.6
20260901205454 81 4 7.0 8.0 0.00 0.01 0.01 84 1020.5
20260901204949 82 279 4.0 5.0 0.00 0.01 0.01 85 1020.5
20260901204446 82 323 5.0 6.0 0.00 0.01 0.01 81 1020.7
20260901203945 82 348 5.0 8.0 0.00 0.01 0.01 81 1020.5
20260901203440 82 286 6.0 8.0 0.00 0.01 0.01 80 1020.5
20260901202935 83 273 5.0 7.0 0.00 0.01 0.01 80 1020.5
20260901202429 83 243 3.0 3.0 0.00 0.01 0.01 79 1020.4
20260901201926 83 12 3.0 7.0 0.00 0.01 0.01 80 1020.6
20260901201420 83 264 5.0 6.0 0.00 0.01 0.01 81 1020.3
20260901200920 82 272 4.0 5.0 0.00 0.01 0.01 82 1020.6
20260901200414 82 260 5.0 7.0 0.00 0.01 0.01 81 1020.6
20260901195914 82 30 6.0 8.0 0.00 0.01 0.01 80 1020.8
20260901195407 82 299 4.0 7.0 0.00 0.01 0.01 80 1020.7
20260901194902 82 354 9.0 9.0 0.00 0.01 0.01 81 1020.7
20260901194356 82 352 7.0 9.0 0.00 0.01 0.01 80 1021.0
20260901193853 83 349 9.0 10.0 0.00 0.01 0.01 79 1020.7
20260901193352 83 14 7.0 8.0 0.00 0.01 0.01 80 1020.9
20260901192852 84 357 8.0 11.0 0.00 0.01 0.01 80 1020.7
20260901192348 85 302 7.0 8.0 0.00 0.01 0.01 78 1020.8
20260901191844 85 219 6.0 8.0 0.00 0.01 0.01 81 1020.8
20260901191339 85 266 3.0 5.0 0.00 0.01 0.01 78 1020.7
20260901190835 84 358 9.0 11.0 0.00 0.01 0.01 80 1020.9
20260901190335 83 265 5.0 7.0 0.00 0.01 0.01 81 1020.7
20260901185833 84 288 7.0 8.0 0.00 0.01 0.01 79 1020.7
20260901185332 84 343 7.0 9.0 0.00 0.01 0.01 78 1021.0
20260901184828 85 264 8.0 9.0 0.00 0.01 0.01 79 1021.0
20260901184323 85 287 8.0 9.0 0.00 0.01 0.01 77 1020.9
20260901183819 84 325 9.0 11.0 0.00 0.01 0.01 77 1020.9
20260901183318 84 14 8.0 9.0 0.00 0.01 0.01 77 1021.0
20260901182815 84 270 3.0 5.0 0.00 0.01 0.01 78 1021.3
20260901182314 84 355 5.0 7.0 0.00 0.01 0.01 80 1021.7
20260901181809 84 274 5.0 8.0 0.00 0.01 0.01 79 1021.4
20260901181303 84 263 4.0 6.0 0.00 0.01 0.01 79 1021.3
20260901180757 85 238 7.0 11.0 0.00 0.01 0.01 79 1021.3
20260901180256 84 9 9.0 13.0 0.00 0.01 0.01 78 1021.7
20260901175755 84 327 13.0 17.0 0.00 0.01 0.01 78 1021.5
20260901175250 84 318 5.0 7.0 0.00 0.01 0.01 77 1021.5
20260901174745 84 295 4.0 6.0 0.00 0.01 0.01 79 1021.3
20260901174241 84 10 13.0 17.0 0.00 0.01 0.01 79 1021.6
20260901173737 84 327 9.0 11.0 0.00 0.01 0.01 78 1021.7
20260901173231 85 265 7.0 9.0 0.00 0.01 0.01 77 1021.7
20260901172728 84 289 7.0 7.0 0.00 0.01 0.01 80 1021.5
20260901172226 84 228 9.0 11.0 0.00 0.01 0.01 80 1021.6
20260901171725 84 281 4.0 6.0 0.00 0.01 0.01 78 1021.6
20260901171224 84 284 9.0 11.0 0.00 0.01 0.01 80 1021.3
20260901170723 83 336 9.0 10.0 0.00 0.01 0.01 81 1021.4
20260901170218 83 312 6.0 9.0 0.00 0.01 0.01 80 1021.5
20260901165717 83 254 7.0 8.0 0.00 0.01 0.01 80 1021.4
20260901165212 83 300 15.0 18.0 0.00 0.01 0.01 81 1021.4
20260901164708 82 197 6.0 7.0 0.00 0.01 0.01 81 1021.5
20260901164203 82 305 4.0 5.0 0.00 0.01 0.01 82 1021.3
20260901163658 82 317 7.0 9.0 0.00 0.01 0.01 83 1021.4
20260901163157 82 251 5.0 7.0 0.00 0.01 0.01 83 1021.6
20260901162653 82 305 3.0 3.0 0.00 0.01 0.01 83 1021.2
20260901162152 81 348 5.0 6.0 0.00 0.01 0.01 83 1021.5
20260901161651 82 355 13.0 17.0 0.00 0.01 0.01 83 1021.7
20260901161151 81 345 6.0 7.0 0.00 0.01 0.01 84 1021.4
20260901160648 82 269 6.0 7.0 0.00 0.01 0.01 84 1021.4
20260901160142 81 262 8.0 10.0 0.00 0.01 0.01 85 1021.6
20260901155642 81 344 7.0 9.0 0.00 0.01 0.01 84 1021.6
20260901155137 81 300 6.0 7.0 0.00 0.01 0.01 84 1021.6
20260901154632 81 351 6.0 7.0 0.00 0.01 0.01 85 1021.7
20260901154126 81 31 11.0 13.0 0.00 0.01 0.01 84 1021.6
20260901153616 81 39 5.0 7.0 0.00 0.01 0.01 84 1021.6
20260901153115 80 309 7.0 9.0 0.00 0.01 0.01 85 1021.7
20260901152610 80 266 5.0 7.0 0.00 0.01 0.01 85 1021.5
20260901152109 80 254 2.0 5.0 0.00 0.01 0.01 85 1021.5
20260901151604 80 347 2.0 3.0 0.00 0.01 0.01 86 1021.6
20260901151104 80 351 10.0 13.0 0.00 0.01 0.01 86 1021.6
20260901150557 80 255 3.0 3.0 0.00 0.01 0.01 88 1021.7
20260901150055 80 285 2.0 5.0 0.00 0.01 0.01 87 1021.4
20260901145549 80 313 0.0 0.0 0.00 0.01 0.01 88 1021.6
20260901145048 79 255 0.0 0.0 0.00 0.01 0.01 89 1021.6
20260901144544 79 301 0.0 0.0 0.00 0.01 0.01 89 1021.6
20260901144039 79 260 1.0 3.0 0.00 0.01 0.01 88 1021.3
20260901143535 78 357 3.0 6.0 0.00 0.01 0.01 88 1021.4
20260901143032 78 279 0.0 0.0 0.00 0.01 0.01 89 1021.6
20260901142532 79 239 5.0 6.0 0.00 0.01 0.01 88 1021.5
20260901142026 79 316 5.0 7.0 0.00 0.01 0.01 88 1021.6
20260901141526 80 264 3.0 6.0 0.00 0.01 0.01 87 1021.6
20260901141021 80 259 0.0 0.0 0.00 0.01 0.01 88 1021.7
20260901140520 79 270 0.0 0.0 0.00 0.01 0.01 89 1021.5
20260901140015 78 268 0.0 0.0 0.00 0.01 0.01 91 1021.7
20260901135514 77 347 0.0 0.0 0.00 0.01 0.01 91 1021.8
20260901135010 77 273 0.0 0.0 0.00 0.01 0.01 93 1021.5
20260901134506 76 279 0.0 0.0 0.00 0.01 0.01 93 1021.8
20260901134001 76 287 0.0 0.0 0.00 0.01 0.01 93 1021.9
20260901133459 76 257 0.0 0.0 0.00 0.01 0.01 94 1021.7
20260901132958 76 242 0.0 0.0 0.00 0.01 0.01 94 1021.9
20260901132457 76 246 0.0 0.0 0.00 0.01 0.01 93 1021.9
20260901131957 76 263 0.0 0.0 0.00 0.01 0.01 93 1022.1
20260901131457 76 45 0.0 0.0 0.00 0.01 0.01 93 1021.9
20260901130952 77 260 0.0 0.0 0.00 0.01 0.01 92 1022.1
20260901130447 77 267 0.0 0.0 0.00 0.01 0.01 92 1022.0
20260901125944 77 266 0.0 0.0 0.00 0.01 0.01 92 1022.1
20260901125444 77 298 0.0 0.0 0.00 0.01 0.01 92 1022.1
20260901124939 77 270 0.0 0.0 0.00 0.01 0.01 92 1022.1
20260901124434 77 270 0.0 0.0 0.00 0.01 0.01 92 1022.1
20260901123929 76 8 0.0 0.0 0.00 0.01 0.01 93 1022.2
20260901123424 75 254 0.0 0.0 0.00 0.01 0.01 94 1022.1
20260901122922 75 322 0.0 0.0 0.00 0.01 0.01 95 1021.9
20260901122416 74 245 0.0 0.0 0.00 0.01 0.01 96 1022.2
20260901121916 74 262 0.0 0.0 0.00 0.01 0.01 97 1022.1
20260901121411 73 266 0.0 0.0 0.00 0.01 0.01 99 1022.0
20260901120906 72 260 0.0 0.0 0.00 0.01 0.01 99 1022.0
20260901120406 72 258 0.0 0.0 0.00 0.01 0.01 99 1022.0
20260901115902 71 240 0.0 0.0 0.00 0.01 0.01 99 1022.1
20260901115401 71 270 0.0 0.0 0.00 0.01 0.01 99 1022.0
20260901114859 71 248 0.0 0.0 0.00 0.01 0.01 99 1022.0
20260901114355 71 255 0.0 0.0 0.00 0.01 0.01 99 1021.9
20260901113853 70 262 0.0 0.0 0.00 0.01 0.01 99 1021.9
20260901113352 68 270 0.0 0.0 0.00 0.01 0.01 99 1021.7
20260901112847 68 240 0.0 0.0 0.00 0.01 0.01 99 1021.9
20260901112347 68 240 0.0 0.0 0.00 0.01 0.01 99 1021.9
20260901111842 67 239 0.0 0.0 0.00 0.01 0.01 99 1021.9
20260901111340 67 239 0.0 0.0 0.00 0.01 0.01 99 1021.6
20260901110839 67 242 0.0 0.0 0.00 0.01 0.01 99 1021.8
20260901110335 67 242 0.0 0.0 0.00 0.01 0.01 99 1021.6
20260901105831 67 226 0.0 0.0 0.00 0.01 0.01 99 1021.4
20260901105326 67 234 0.0 0.0 0.00 0.01 0.01 99 1021.6
20260901104823 67 238 0.0 0.0 0.00 0.01 0.01 99 1021.4
20260901104317 67 239 0.0 0.0 0.00 0.01 0.01 99 1021.5